KOREASAT 6

Last updated on Thu Oct 30 2025 00:02:48 GMT+0000 (Coordinated Universal Time)

1 37265U 10070B 25302.54504153 -.00000101 00000+0 00000+0 0 9991 2 37265 0.0067 67.7177 0002013 154.7383 171.7908 1.00271295 54458
UTC large
Height (km)
Speed (km/s)
/
Latitude / Longitude
Inclination (degrees)
Orbital Period (minutes)
Azimuth
Elevation
Range (km)
Doppler Factor

Next 0 passes for location: London (51.5072 / 0.1276)

Sorry there are no passes over London.